Погода Черняево

Хотите узнать прогноз погоды Черняево? Тогда Вам сюда: Погода Черняево

Поиск расширенной информации на нашем сайте:

Полезная информация:

Новости сайта



02.01.2020
Опубликован Долгосрочный прогноз погоды по городам России и ближнего зарубежья на январь 2020 года.
Карты: Прогноз на январь и февраль 2020 года, Сравнение прогнозируемой аномалии приземной температуры воздуха на январь 2020 года по разным моделям.




Погода Черняево - сегодня

Время (UTC), дата Ветер
(°,м/с) 
Видим.   Явления Облачность Т
(°С)
Тd
(°С)
f(%) Тe
(°С)
Pmin
(гПа)
dP
(гПа)
Po
(мм)
O2
(г/м3)
Тmin Tmax R s Состояние
почвы
21 29.11.20 320 (СЗ) 20000 м    3/0 средняя 
[Ac trans]
-21.3 -23.8 80 -24  1026.8  0.1  749  329           
00 30.11.20 330 (СЗ) 20000 м    3/0 средняя 
[Ac trans]
-21.2 -23.8 79 -24  1027.6  0.1  749  329  -23.1      равномерный
сухой снег
100% 
03 30.11.20 290 (З) 20000 м    ясно 
-12.4 -20.3 52 -17  1026.9  0.2  749  318           
06 30.11.20 320 (СЗ) 3{10}  20000 м    3/0 средняя, верхняя 
[Ac trans|Ci fib]
-8.9 -19 44 -12  1026.4  749  314           
09 30.11.20 290 (З) 20000 м    ясно 
-12 -19.7 53 -14  1027.9  1.1  750  318           
12 30.11.20 310 (СЗ) 20000 м    ясно 
-11.8 -20.5 48 -16  1028.7  0.8  751  318    -8.8       
15 30.11.20 290 (З) 20000 м    ясно 
-14.1 -21 56 -19  1029.3  0.4  751  321           
18 30.11.20 270 (З) 20000 м    ясно 
-16.9 -21.8 66 -21  1029.9  0.3  751  324           
21 30.11.20 280 (З) 20000 м    ясно 
-19.3 -22.6 75 -24  1030  -0.2  751  327           
00 01.12.20 020 (С) 20000 м    ясно 
-22.7 -25.5 78 -23  1030.4  751  332  -22.7      равномерный
сухой снег
100% 
03 01.12.20 290 (З) 20000 м    ясно 
-13.1 -20.2 55 -18  1028.7  -0.5  751  319           
06 01.12.20 300 (СЗ) 20000 м    ясно 
-11.4 -20.2 48 -15  1027.6  -0.9  750  317           
09 01.12.20 тихо ()   20000 м    ясно 
-18 -21.7 73 -18  1028.5  0.2  750  325           
12 01.12.20 030 (СВ) 20000 м    ясно 
-22.7 -25.1 81 -23  1028.9  -0.2  750  331    -11.4       
15 01.12.20 020 (С) 20000 м    ясно 
-24.4 -27.1 78 -25  1028.6  -0.4  750  333           
18 01.12.20 050 (СВ) 20000 м    ясно 
-25.4 -28.1 78 -26  1028.6  -0.1  749  335           
21 01.12.20 тихо ()   20000 м    ясно 
-26.7 -29.7 76 -27  1027.9  -0.9  749  336           
00 02.12.20 тихо ()   20000 м    ясно 
-27.1 -30.1 76 -27  1027.4  -0.5  749  337  -27.5      равномерный
сухой снег
100% 
03 02.12.20 110 (В) 20000 м    ясно 
-20 -22.9 78 -20  1025.4  -1.1  748  327           
06 02.12.20 280 (З) 20000 м    10/0 средняя, верхняя 
[Ac trans|Cs]
-11.3 -20.4 47 -14  1022.9  -1.5  746  315           
09 02.12.20 280 (З) 20000 м    3/0 средняя, верхняя 
[Ac trans|Ci fib]
-13.6 -19.7 60 -16  1022.8  -0.3  746  318           
12 02.12.20 290 (З) 50000 м    4/0 средняя, верхняя 
[Ac trans|Ci fib]
-13.6 -19.3 62 -19  1022  -0.8  746  318    -11.2       
15 02.12.20 270 (З) 2{10}  20000 м    ясно 
-14.7 -20.2 63 -17  1021.7  -0.4  745  319           
18 02.12.20 210 (ЮЗ) 20000 м    ясно 
-18.6 -21.6 77 -21  1021.3  -0.8  745  324           
21 02.12.20 040 (СВ) 20000 м    6/0 средняя, верхняя 
[Ac trans|Ci fib]
-21.4 -23.8 81 -22  1020.9  -0.7  744  327           
Время (UTC), дата Ветер
(°,м/с) 
Видим.   Явления Облачность Т
(°С)
Тd
(°С)
f(%) Тe
(°С)
Pmin
(гПа)
dP
(гПа)
Po
(мм)
O2
(г/м3)
Тmin Tmax R s Состояние
почвы

Для получения пояснительной информации подведите курсор к названию столбца.

ПОГОДА Черняево - архив

Всё, что Вы хотите узнать о погоде Черняево - удобно и подробно!

Выберите нужную дату (начиная с 1 января 2019* года) и нажмите кнопку "Найти".
Будут отображены архивные сводки погоды по пункту Черняево, начиная с указанной даты.


Отображать данные в формате CSV (для использования в таблицах Excel)


Внимание! Наш архив погоды предназначен исключительно для личного некоммерческого использования в познавательных целях. Если Вам необходимы официальные справки о состоянии погоды (для производственных, юридических, коммерческих и т.п. целей), обращайтесь в органы Росгидромета.

*Примечание: данная дата относится к архиву по метеостанциям СССР (Россия, СНГ, Балтия).
Архив по метеостанциям Зарубежной Европы и Азии (кроме Китая) хранится 10 дней, по другим регионам земного шара (Китай, Африка, Америка, Австралия, Океания) - 1 день.

Черняево - район местоположения метеостанции


Название, широта, долгота, высота метеостанции:
Черняево 52.8°ш. 126°д. 210 м над ур. моря [Российская Федерация]

Дополнительная информация

В oтличие oт бoльшинства пoгoдных сайтoв мы публикуем пoдрoбную метеoинфoрмацию в детальнoм прoфессиoнальнoм фoрмате.

Характеристики температуры и влажнoсти вoздуха измеряются на высoте 2 м в тени вдали oт зданий и деревьев.
Скoрoсть ветра измеряется на высoте 10 м (на урoвне рoста челoвека скoрoсть ветра ниже в 1.5-2 раза). Если метеoстанция нахoдится в гoрoде или в лесу, тo скoрoсть ветра занижена на 2-4 м/с пo сравнению с oткрытым местoм. Скoрoсть ветра над акватoриями крупных рек и oзёр, а также на вершинах хoлмoв на 2-5 м/с выше, чем в oбычных услoвиях.
Атмoсфернoе давление в разных тoчках местнoсти мoжет значительнo oтличаться oт давления на метеoстанции, в зависимoсти oт услoвий рельефа (при пoдъёме на 10 м давление пoнижается примернo на 1 мм рт.ст.).